www.pogodaiklimat.ru

Погода и климат >> Архив погоды >> Антарктида >> Marambio Base


ПОГОДА в Marambio Base

  • Прогноз погоды в Marambio Base
  • Монитор погоды в Marambio Base
  • Климат города

АРХИВ ПОГОДЫ в Marambio Base

Время (UTC), дата Ветер
(напр.,м/с)
 
Видим.   Явления Облачность Т
(С)
Тd
(С)
f
(%)
Тe
(С)
Тes
(С)
Комфортность P
(гПа)
Po
(гПа)
Тmin
(С)
Tmax
(С)
R
(мм)
R24
(мм)
S
(см)
00 14.11 Ю 6 4000 м слабый снег 10/8 600 м
[Sc As op]
-3.3 -3.7 97 -11 -11 978.4 954.2 -3.6 -2.0
03 14.11 Ю 6 15 км в посл. час снег 8/0
[Ac As]
-4.4 -5.0 96 -12 -12 980.2 955.8
06 14.11 Ю 6 15 км {снег} 8/6 90 м
[Sc Ac As]
-4.6 -5.2 96 -13 -13 981.1 956.8
09 14.11 Ю 4 15 км 9/6 90 м
[Sc Ac As]
-4.0 -5.2 91 -10 -10 982.2 957.8
12 14.11 В 2 10 км 9/8 180 м
[Frnb Ac As]
-3.6 -4.4 94 -8 -7 982.7 958.4 -5.0 -2.6
15 14.11 В 3 10 км слабый снег 10/6 180 м
[Frnb Ac As]
-2.1 -3.6 89 -7 -6 982.5 958.2
18 14.11 В 3 15 км в посл. час снег 10/5 180 м
[St As op]
-2.6 -3.6 93 -8 -7 982.1 957.8
21 14.11 В 4 8000 м слабый снег 10/6 180 м
[St As op]
-3.3 -4.0 95 -10 -9 981.0 956.6
00 15.11 В 5 100 м снег {туман} 10/10 60 м
[St]
-3.4 -3.8 97 -10 -10 979.8 955.6 -3.6 -1.6
03 15.11 В 6 <100 м снег 10/10 30 м
[St]
-4.4 -5.0 96 -12 -12 977.9 953.7
06 15.11 ЮВ 10 <100 м слабый снег {туман} 10/10 60 м
[St]
-4.5 -5.1 96 -14 -14 975.1 951.0
09 15.11 Ю 10 <100 м снег {туман} 10/10 30 м
[St]
-4.4 -5.0 96 -14 -14 972.9 948.8
12 15.11 Ю 12 <100 м снег 10/10 30 м
[Frnb]
-4.2 -4.7 96 -14 -14 970.2 946.2 -4.6 -3.0
15 15.11 Ю 14 <100 м сильный снег ?/? -4.0 -4.5 96 -15 -15 967.9 943.8
18 15.11 Ю 15 <100 м сильный снег ?/? -3.8 -4.3 96 -15 -15 967.3 943.3
21 15.11 Ю 16 <100 м переохл. туман {снег} ?/? -4.6 -5.2 96 -16 -16 966.4 942.4
00 16.11 Ю 19 100 м снег {туман} 10/10 60 м
[St]
-5.0 -5.6 96 -17 -17 965.7 941.7 -5.0 -3.3
03 16.11 Ю 19 100 м снег {туман} 10/10 60 м
[St]
-5.5 -6.2 95 -18 -18 965.3 941.3
06 16.11 ЮЗ 19 <100 м туман {снег} ?/? -5.6 -6.3 95 -18 -18 965.1 941.0
09 16.11 ЮЗ 20 <100 м туман туман ?/? -5.9 -6.6 95 -19 -19 965.4 941.4
12 16.11 Ю 17 100 м снег {туман} 10/10 90 м
[St]
-4.6 -5.2 96 -16 -16 966.3 942.2 -6.1 -2.9
15 16.11 Ю 20 <100 м туман 10/5 300 м
[St Ac As]
-5.1 -5.8 95 -18 -18 966.7 942.6
18 16.11 Ю 21 <100 м туман {метель} туман ?/? -6.1 -6.9 94 -19 -19 967.8 943.7
21 16.11 Ю 21 <100 м туман туман ?/? -6.2 -7.0 94 -19 -19 969.1 944.9
00 17.11 Ю 17 <100 м туман ?/? -6.5 -7.3 94 -19 -19 970.9 946.6 -7.0 -4.5
03 17.11 Ю 19 <100 м туман туман ?/? -8.0 -9.0 92 -21 -21 972.3 948.0
06 17.11 Ю 20 100 м туман {метель} 10/10 60 м
[St]
-7.8 -8.8 93 -21 -21 973.5 949.0
09 17.11 Ю 19 200 м туман {снег} 10/10 90 м
[St]
-8.1 -9.1 92 -21 -21 974.7 950.2
12 17.11 Ю 21 700 м сильная метель {снег, туман} 10/10 240 м
[St]
-7.1 -8.0 93 -21 -21 975.3 950.9 -8.5 -6.4
15 17.11 Ю 20 700 м сильная метель 9/6 240 м
[St Ac As]
-5.7 -6.4 95 -19 -19 976.5 952.1
18 17.11 ЮЗ 18 7000 м позёмок {метель} 5/3 180 м
[St Ac As]
-4.5 -6.5 86 -16 -16 978.5 954.1
21 17.11 ЮЗ 17 10 км позёмок {метель} 1/1 180 м
[St]
-5.1 -6.8 88 -17 -17 980.3 955.8
00 18.11 ЮЗ 11 15 км {метель} 1/1 180 м
[St]
-6.8 -7.7 93 -17 -17 980.9 956.2 -7.1 -4.4
03 18.11 ЮЗ 11 15 км ясно -7.9 -8.9 93 -19 -19 980.4 955.8
06 18.11 Ю 11 15 км 8/1 180 м
[Sc Ac As Cs]
-8.1 -9.1 92 -19 -19 979.1 954.6
09 18.11 Ю 7 15 км 8/0
[Ac As Cs]
-7.5 -8.4 93 -16 -16 978.2 953.8
12 18.11 Ю 4 15 км 10/0
[As trans Cs]
-6.7 -7.9 91 -13 -10 976.1 951.7 -8.4 -5.7
15 18.11 В 5 2500 м слабый снег 10/4 180 м
[Frnb As op]
-6.0 -7.1 92 -14 -13 973.0 948.6
18 18.11 В 6 1500 м слабый снег 10/5 150 м
[Frnb As op]
-5.7 -6.4 95 -14 -13 970.0 945.7
21 18.11 В 9 300 м сильный снег 10/10 90 м
[Frnb]
-6.4 -7.6 91 -16 -16 966.5 942.2
00 19.11 Ю 12 300 м сильный снег 10/10 60 м
[Frnb]
-7.5 -8.4 93 -19 -19 964.2 940.0 -7.5 -5.3
03 19.11 Ю 12 500 м снег 10/10 150 м
[Frnb]
-8.4 -9.4 92 -20 -20 964.4 940.2
06 19.11 Ю 11 1000 м слабый снег {туман} 10/10 120 м
[St]
-8.6 -9.7 92 -20 -20 966.1 941.8
09 19.11 Ю 10 5000 м позёмок {метель} 8/6 90 м
[St Cs]
-8.6 -9.7 92 -19 -19 965.9 941.7
12 19.11 Ю 11 9000 м дымка {метель} 8/8 120 м
[St Cs]
-7.5 -8.4 93 -18 -18 965.8 941.6 -9.0 -7.1 8
15 19.11 Ю 11 5000 м позёмок {метель} 8/8 60 м
[St]
-7.0 -7.9 93 -18 -18 966.1 941.8
18 19.11 Ю 11 15 км позёмок {метель} 6/6 120 м
[St]
-6.3 -7.1 94 -17 -17 966.2 942.0
21 19.11 Ю 7 15 км 9/9 450 м
[Sc]
-8.1 -9.1 92 -17 -17 966.9 942.6
00 20.11 Ю 7 15 км 10/5 300 м
[St Ac As]
-9.0 -10.1 92 -18 -18 966.7 942.4 -9.0 -5.9
03 20.11 ЮВ 4 1500 м слабый снег 9/5 300 м
[St As op Cs]
-9.3 -10.4 92 -16 -16 966.4 942.1
06 20.11 ЮВ 4 2500 м снежные кристаллы 10/0
[As op]
-9.3 -10.9 88 -16 -16 966.3 942.0
09 20.11 Ю 4 15 км в посл. час снег 6/3 150 м
[St Ac As Ci fib]
-9.7 -11.3 88 -16 -16 966.5 942.1
12 20.11 Ю 3 15 км {снег} 10/10 90 м
[St]
-6.2 -7.0 94 -12 -12 966.7 942.4 -10.4 -6.1
15 20.11 Ю 5 15 км 10/10 240 м
[St]
-5.9 -6.6 95 -13 -13 966.5 942.2
18 20.11 Ю 4 10 км слабый снег 10/10 300 м
[St]
-7.3 -8.6 90 -14 -14 967.2 942.9

 

Местоположение метеостанции Marambio Base (Антарктида): широта -64.23 долгота -56.71 высота над уровнем моря 198 м.

В архиве по умолчанию представлена погода в Marambio Base за последнюю неделю. Архивные данные за месяц целиком и за предыдущие месяцы, начиная с января 2011 года, Вы можете получить, выбрав интересующий диапазон дат из раскрывающегося списка и нажав кнопку "Ввод!".


*Определитесь, кто Вы:
робот инопланетянин человек

Внимание! Время в таблицах - всемирное. Для получения местного времени необходимо прибавить поправку, которая в Marambio Base равна 0 ч.

Смотрите также архив погоды в соседних городах и на ближайших метеорологических станциях:

Погода в Esperanza Base (Антарктида) (93 км)
Погода в Bernardo o`Higgins (Антарктида) (118 км)
Погода в Carlini Base (Антарктида) (242 км)
Погода в Captain Arturo Prat Base (Антарктида) (243 км)
Погода в King Sejong (Антарктида) (247 км)
Погода в Great Wall (Антарктида) (251 км)
Погода в Dinamet-Uruguay (Антарктида) (252 км)
Погода в Bellingshausen (Антарктида) (252 км)
Погода в Juan Carlos Island (Антарктида) (253 км)
Погода в Frei Chi-Base (Антарктида) (255 км)

Пояснения к столбцам:

Ветер - указаны скорость ветра в м/с - средняя за 10 мин, порывы в срок и между сроками (в фигурных скобках) и направление, откуда дует ветер: С - северный, СВ - северо-восточный, В - восточный, ЮВ - юго-восточный, Ю - южный, ЮЗ - юго-западный, З - западный, СЗ - северо-западный.
Видимость - горизонтальная дальность видимости в метрах или километрах. При видимости от 1 до 10 км при отсутствии осадков обычно наблюдается дымка, при ухудшении видимости до 1 км и менее - туман. В сухую погоду видимость может ухудшаться дымом, пылью или мглою.
Явления - указаны атмосферные явления, наблюдавшиеся в срок или в последний час перед сроком; фигурными скобками обозначены явления, наблюдавшиеся между сроками (за 1-3 часа до срока); квадратными скобками обозначены град или гололедные отложения с указанием их диаметра в мм.
Облачность - указаны через наклонную черту общая и нижняя облачность в баллах и высота нижней границы облаков в метрах; квадратными скобками обозначены формы облаков: Ci - перистые, Cs - перисто-слоистые, Cc - перисто-кучевые, Ac - высококучевые, As - высокослоистые, Sc - слоисто-кучевые, Ns - слоисто-дождевые, Cu - кучевые, Cb - кучево-дождевые. Подробнее классификацию облаков см. в Атласе облаков (PDF).
T - Температура воздуха - температура, измеренная на высоте 2 м над землей.
Td - Температура точки росы - температура, при понижении до которой содержащийся в воздухе водяной пар достигнет насыщения.
f - Относительная влажность воздуха - влажноcть воздуха, измеренная на высоте 2 м над землей.
Te - Эффективная температура - температура, которую ощущает одетый по сезону человек в тени. Характеристика душности погоды. При расчете учитывается влияние влажности воздуха и скорости ветра на теплоощущения человека.
Tes - Эффективная температура на солнце - температура, которую ощущает человек, с поправкой на солнечный нагрев. Характеристика знойности погоды. Зависит от высоты солнца над горизонтом, облачности и скорости ветра. Ночью, в пасмурную погоду, а также при ветре 12 м/с и более поправка равна нулю.
P - Атмосферное давление - приведенное к уровню моря атмосферное давление.
Po - Атмосферное давление - измеренное на уровне метеостанции атмосферное давление.
Tmin - Минимальная температура - минимум температуры воздуха на высоте 2 м над землей.
Tmax - Максимальная температура - максимум температуры воздуха на высоте 2 м над землей.
R - Количество осадков - Количество выпавших осадков за период времени, мм. При наведении курсора мыши на число - период времени, за который выпало указанное количество осадков.
R24 - Количество осадков - Количество выпавших осадков за 24 часа, мм.
S - Снежный покров - Высота снежного покрова, см. При наведении курсора мыши на число - состояние снежного покрова и степень покрытия местности в баллах.